Location: Bagong Pook
(14.2541°N, 120.8791°E)
Time: 02:46:59
(UTC+00:00)

Cosmos 1339 Rocket - Pass Details

Date: 13 January 2026
Orbit: 941 x 1006 km, 82.9° (Epoch: 16 February)

Event Time Altitude Azimuth Distance (km) Brightness Sun altitude
Rises 10:47:20 0° 183° (S) 3,699 7.8 -14.8°
Reaches altitude 10° 10:49:51 10° 183° (S) 2,744 7.1 -15.4°
Maximum altitude 10:56:10 89° 95° (E) 981 4.5 -16.8°
Drops below altitude 10° 11:02:22 10° 4° (N) 2,701 6.6 -18.2°
Sets 11:04:51 0° 4° (N) 3,639 7.3 -18.8°
